Time,TemperatureF,DewpointF,PressureIn,WindDirection,WindDirectionDegrees,WindSpeedMPH,WindSpeedGustMPH,Humidity,HourlyPrecipIn,Conditions,Clouds,dailyrainin,SoftwareType,DateUTC
2013-01-17 00:11:00,34.4,30.0,30.07,WNW,293,1.0,4.0,84,0.00,,,0.00,weatherlink.com 1.10,2013-01-17 05:11:00,
2013-01-17 00:27:00,34.5,30.0,30.08,WSW,245,3.0,3.0,84,0.00,,,0.00,weatherlink.com 1.10,2013-01-17 05:27:00,
2013-01-17 00:42:00,34.6,30.0,30.08,WNW,298,1.0,7.0,83,0.00,,,0.00,weatherlink.com 1.10,2013-01-17 05:42:00,
2013-01-17 00:57:00,34.6,30.0,30.08,NW,324,0.0,2.0,83,0.00,,,0.00,weatherlink.com 1.10,2013-01-17 05:57:00,
2013-01-17 01:12:00,34.6,30.0,30.09,WNW,298,1.0,6.0,83,0.00,,,0.00,weatherlink.com 1.10,2013-01-17 06:12:00,
2013-01-17 01:27:00,34.5,30.0,30.09,WNW,287,0.0,1.0,83,0.00,,,0.00,weatherlink.com 1.10,2013-01-17 06:27:00,
2013-01-17 01:42:00,34.4,30.0,30.10,WSW,257,0.0,2.0,83,0.00,,,0.00,weatherlink.com 1.10,2013-01-17 06:42:00,
2013-01-17 01:57:00,34.3,30.0,30.11,West,264,0.0,1.0,83,0.00,,,0.00,weatherlink.com 1.10,2013-01-17 06:57:00,
2013-01-17 02:12:00,34.5,30.0,30.12,NW,311,0.0,3.0,83,0.00,,,0.00,weatherlink.com 1.10,2013-01-17 07:12:00,
2013-01-17 02:27:00,34.5,30.0,30.12,NW,325,1.0,3.0,82,0.00,,,0.00,weatherlink.com 1.10,2013-01-17 07:27:00,
2013-01-17 02:42:00,34.5,29.0,30.13,North,354,0.0,4.0,80,0.00,,,0.00,weatherlink.com 1.10,2013-01-17 07:42:00,
2013-01-17 02:57:00,34.1,29.0,30.13,WSW,255,0.0,0.0,80,0.00,,,0.00,weatherlink.com 1.10,2013-01-17 07:57:00,
2013-01-17 03:12:00,34.1,28.0,30.14,NNW,330,0.0,2.0,78,0.00,,,0.00,weatherlink.com 1.10,2013-01-17 08:12:00,
2013-01-17 03:27:00,34.0,28.0,30.14,WNW,295,0.0,2.0,78,0.00,,,0.00,weatherlink.com 1.10,2013-01-17 08:27:00,
2013-01-17 03:42:00,33.7,28.0,30.15,WNW,294,0.0,0.0,79,0.00,,,0.00,weatherlink.com 1.10,2013-01-17 08:42:00,
2013-01-17 03:57:00,33.7,28.0,30.14,WNW,294,0.0,1.0,78,0.00,,,0.00,weatherlink.com 1.10,2013-01-17 08:57:00,
2013-01-17 04:12:00,33.4,28.0,30.15,WNW,295,0.0,1.0,79,0.00,,,0.00,weatherlink.com 1.10,2013-01-17 09:12:00,
2013-01-17 04:27:00,33.0,28.0,30.16,WNW,295,0.0,0.0,81,0.00,,,0.00,weatherlink.com 1.10,2013-01-17 09:27:00,
2013-01-17 04:42:00,32.7,28.0,30.16,WNW,295,0.0,0.0,81,0.00,,,0.00,weatherlink.com 1.10,2013-01-17 09:42:00,
2013-01-17 04:57:00,32.5,28.0,30.17,WNW,295,0.0,0.0,82,0.00,,,0.00,weatherlink.com 1.10,2013-01-17 09:57:00,
2013-01-17 05:12:00,32.4,28.0,30.18,WNW,295,0.0,0.0,83,0.00,,,0.00,weatherlink.com 1.10,2013-01-17 10:12:00,
2013-01-17 05:27:00,32.4,28.0,30.18,WNW,294,0.0,0.0,83,0.00,,,0.00,weatherlink.com 1.10,2013-01-17 10:27:00,
2013-01-17 05:42:00,32.8,28.0,30.19,WNW,291,0.0,3.0,81,0.00,,,0.00,weatherlink.com 1.10,2013-01-17 10:42:00,
2013-01-17 05:57:00,33.1,28.0,30.19,NW,314,0.0,1.0,80,0.00,,,0.00,weatherlink.com 1.10,2013-01-17 10:57:00,
2013-01-17 06:12:00,33.3,27.0,30.19,NW,316,1.0,3.0,78,0.00,,,0.00,weatherlink.com 1.10,2013-01-17 11:12:00,
2013-01-17 06:27:00,33.3,27.0,30.19,NW,323,0.0,3.0,77,0.00,,,0.00,weatherlink.com 1.10,2013-01-17 11:27:00,
2013-01-17 06:42:00,33.1,26.0,30.21,NNW,339,1.0,4.0,76,0.00,,,0.00,weatherlink.com 1.10,2013-01-17 11:42:00,
2013-01-17 06:57:00,32.9,26.0,30.22,NW,318,0.0,4.0,75,0.00,,,0.00,weatherlink.com 1.10,2013-01-17 11:57:00,
2013-01-17 07:12:00,32.7,26.0,30.22,NNW,339,1.0,4.0,75,0.00,,,0.00,weatherlink.com 1.10,2013-01-17 12:12:00,
2013-01-17 07:27:00,32.1,25.0,30.23,WNW,297,1.0,3.0,75,0.00,,,0.00,weatherlink.com 1.10,2013-01-17 12:27:00,
2013-01-17 07:43:00,31.3,25.0,30.23,NNW,333,0.0,1.0,76,0.00,,,0.00,weatherlink.com 1.10,2013-01-17 12:43:00,
2013-01-17 07:58:00,30.4,25.0,30.23,NNW,339,0.0,1.0,79,0.00,,,0.00,weatherlink.com 1.10,2013-01-17 12:58:00,
2013-01-17 08:13:00,29.0,24.0,30.23,NNW,339,0.0,0.0,81,0.00,,,0.00,weatherlink.com 1.10,2013-01-17 13:13:00,
2013-01-17 08:28:00,28.7,24.0,30.24,North,353,0.0,1.0,82,0.00,,,0.00,weatherlink.com 1.10,2013-01-17 13:28:00,
2013-01-17 08:43:00,28.9,24.0,30.25,NNW,334,0.0,2.0,82,0.00,,,0.00,weatherlink.com 1.10,2013-01-17 13:43:00,
2013-01-17 08:58:00,29.3,24.0,30.26,NNW,328,1.0,2.0,81,0.00,,,0.00,weatherlink.com 1.10,2013-01-17 13:58:00,
2013-01-17 09:13:00,30.0,25.0,30.26,NNW,335,0.0,3.0,80,0.00,,,0.00,weatherlink.com 1.10,2013-01-17 14:13:00,
2013-01-17 09:28:00,31.1,25.0,30.27,NW,321,1.0,4.0,78,0.00,,,0.00,weatherlink.com 1.10,2013-01-17 14:28:00,
2013-01-17 09:43:00,32.3,26.0,30.27,NW,324,1.0,6.0,76,0.00,,,0.00,weatherlink.com 1.10,2013-01-17 14:43:00,
2013-01-17 09:58:00,33.1,25.0,30.27,NE,53,1.0,6.0,73,0.00,,,0.00,weatherlink.com 1.10,2013-01-17 14:58:00,
2013-01-17 10:13:00,33.7,24.0,30.28,NW,307,3.0,7.0,68,0.00,,,0.00,weatherlink.com 1.10,2013-01-17 15:13:00,
2013-01-17 10:28:00,33.1,24.0,30.28,NNE,33,2.0,8.0,69,0.00,,,0.00,weatherlink.com 1.10,2013-01-17 15:28:00,
2013-01-17 10:43:00,32.6,23.0,30.29,NW,322,3.0,9.0,67,0.00,,,0.00,weatherlink.com 1.10,2013-01-17 15:43:00,
2013-01-17 10:58:00,32.8,22.0,30.29,NW,322,3.0,6.0,64,0.00,,,0.00,weatherlink.com 1.10,2013-01-17 15:58:00,
2013-01-17 11:13:00,32.9,21.0,30.29,WNW,295,3.0,6.0,63,0.00,,,0.00,weatherlink.com 1.10,2013-01-17 16:13:00,
2013-01-17 11:28:00,32.8,22.0,30.28,NW,305,1.0,8.0,64,0.00,,,0.00,weatherlink.com 1.10,2013-01-17 16:28:00,
2013-01-17 11:43:00,32.4,21.0,30.28,NW,317,5.0,8.0,63,0.00,,,0.00,weatherlink.com 1.10,2013-01-17 16:43:00,
2013-01-17 11:58:00,32.8,21.0,30.28,WNW,294,3.0,6.0,63,0.00,,,0.00,weatherlink.com 1.10,2013-01-17 16:58:00,
2013-01-17 12:12:00,32.7,20.0,30.28,WNW,297,3.0,9.0,59,0.00,,,0.00,weatherlink.com 1.10,2013-01-17 17:12:00,
2013-01-17 12:28:00,32.1,19.0,30.28,NNW,342,5.0,10.0,60,0.00,,,0.00,weatherlink.com 1.10,2013-01-17 17:28:00,
2013-01-17 12:43:00,31.8,20.0,30.28,WNW,297,3.0,8.0,62,0.00,,,0.00,weatherlink.com 1.10,2013-01-17 17:43:00,
2013-01-17 12:58:00,31.6,19.0,30.27,WNW,295,5.0,10.0,61,0.00,,,0.00,weatherlink.com 1.10,2013-01-17 17:58:00,
2013-01-17 13:13:00,31.8,20.0,30.27,NNW,340,8.0,12.0,61,0.00,,,0.00,weatherlink.com 1.10,2013-01-17 18:13:00,
2013-01-17 13:28:00,31.5,19.0,30.27,NW,311,3.0,8.0,60,0.00,,,0.00,weatherlink.com 1.10,2013-01-17 18:28:00,
2013-01-17 13:43:00,31.3,19.0,30.28,NNE,21,1.0,10.0,60,0.00,,,0.00,weatherlink.com 1.10,2013-01-17 18:43:00,
2013-01-17 13:58:00,30.3,19.0,30.28,North,6,3.0,10.0,63,0.00,,,0.00,weatherlink.com 1.10,2013-01-17 18:58:00,
2013-01-17 14:13:00,30.5,18.0,30.28,North,355,0.0,11.0,61,0.00,,,0.00,weatherlink.com 1.10,2013-01-17 19:13:00,
2013-01-17 14:28:00,30.6,18.0,30.28,NE,36,1.0,11.0,61,0.00,,,0.00,weatherlink.com 1.10,2013-01-17 19:28:00,
2013-01-17 14:43:00,29.5,18.0,30.28,NW,324,6.0,10.0,62,0.00,,,0.00,weatherlink.com 1.10,2013-01-17 19:43:00,
2013-01-17 14:58:00,29.0,18.0,30.29,NNW,328,5.0,9.0,63,0.00,,,0.00,weatherlink.com 1.10,2013-01-17 19:58:00,
2013-01-17 15:13:00,27.0,17.0,30.29,NW,325,5.0,8.0,65,0.00,,,0.00,weatherlink.com 1.10,2013-01-17 20:13:00,
2013-01-17 15:29:00,26.4,16.0,30.29,NNW,333,3.0,11.0,64,0.00,,,0.00,weatherlink.com 1.10,2013-01-17 20:29:00,
2013-01-17 15:44:00,27.1,16.0,30.30,WNW,288,4.0,12.0,64,0.00,,,0.00,weatherlink.com 1.10,2013-01-17 20:44:00,
2013-01-17 15:59:00,26.5,15.0,30.30,NW,322,2.0,8.0,63,0.00,,,0.00,weatherlink.com 1.10,2013-01-17 20:59:00,
2013-01-17 16:14:00,26.3,15.0,30.30,NNW,338,5.0,9.0,63,0.00,,,0.00,weatherlink.com 1.10,2013-01-17 21:14:00,
2013-01-17 16:29:00,25.3,15.0,30.31,NNE,26,6.0,12.0,64,0.00,,,0.00,weatherlink.com 1.10,2013-01-17 21:29:00,
2013-01-17 16:44:00,24.4,14.0,30.32,NW,323,4.0,11.0,66,0.00,,,0.00,weatherlink.com 1.10,2013-01-17 21:44:00,
2013-01-17 16:59:00,23.7,15.0,30.34,NW,326,1.0,11.0,69,0.00,,,0.00,weatherlink.com 1.10,2013-01-17 21:59:00,
2013-01-17 17:14:00,23.2,15.0,30.34,NW,322,3.0,7.0,71,0.00,,,0.00,weatherlink.com 1.10,2013-01-17 22:14:00,
2013-01-17 17:29:00,22.8,15.0,30.34,NW,311,2.0,5.0,73,0.00,,,0.00,weatherlink.com 1.10,2013-01-17 22:29:00,
2013-01-17 17:44:00,22.5,15.0,30.35,North,352,1.0,4.0,72,0.00,,,0.00,weatherlink.com 1.10,2013-01-17 22:44:00,
2013-01-17 17:59:00,22.3,14.0,30.35,North,8,0.0,6.0,70,0.00,,,0.00,weatherlink.com 1.10,2013-01-17 22:59:00,
2013-01-17 18:14:00,22.5,13.0,30.36,West,277,3.0,5.0,68,0.00,,,0.00,weatherlink.com 1.10,2013-01-17 23:14:00,
2013-01-17 18:29:00,22.7,14.0,30.36,NNW,340,0.0,2.0,68,0.00,,,0.00,weatherlink.com 1.10,2013-01-17 23:29:00,
2013-01-17 18:44:00,22.7,14.0,30.36,NNW,343,0.0,3.0,68,0.00,,,0.00,weatherlink.com 1.10,2013-01-17 23:44:00,
2013-01-17 18:59:00,22.7,14.0,30.37,NNW,332,0.0,4.0,69,0.00,,,0.00,weatherlink.com 1.10,2013-01-17 23:59:00,
2013-01-17 19:14:00,22.9,14.0,30.37,NW,319,1.0,3.0,70,0.00,,,0.00,weatherlink.com 1.10,2013-01-18 00:14:00,
2013-01-17 19:29:00,22.9,14.0,30.38,NNW,345,1.0,2.0,70,0.00,,,0.00,weatherlink.com 1.10,2013-01-18 00:29:00,
2013-01-17 19:44:00,23.1,15.0,30.38,NW,321,0.0,2.0,70,0.00,,,0.00,weatherlink.com 1.10,2013-01-18 00:44:00,
2013-01-17 19:59:00,23.2,15.0,30.38,North,6,2.0,2.0,70,0.00,,,0.00,weatherlink.com 1.10,2013-01-18 00:59:00,
2013-01-17 20:14:00,23.6,14.0,30.38,NW,305,2.0,6.0,68,0.00,,,0.00,weatherlink.com 1.10,2013-01-18 01:14:00,
2013-01-17 20:29:00,23.8,15.0,30.38,NNW,347,2.0,6.0,68,0.00,,,0.00,weatherlink.com 1.10,2013-01-18 01:29:00,
2013-01-17 20:44:00,23.9,15.0,30.39,NW,323,0.0,6.0,69,0.00,,,0.00,weatherlink.com 1.10,2013-01-18 01:44:00,
2013-01-17 20:59:00,23.9,15.0,30.39,NNW,342,1.0,4.0,70,0.00,,,0.00,weatherlink.com 1.10,2013-01-18 01:59:00,
2013-01-17 21:14:00,23.9,15.0,30.39,North,3,1.0,4.0,70,0.00,,,0.00,weatherlink.com 1.10,2013-01-18 02:14:00,
2013-01-17 21:29:00,24.0,16.0,30.39,NW,308,1.0,2.0,70,0.00,,,0.00,weatherlink.com 1.10,2013-01-18 02:29:00,
2013-01-17 21:44:00,24.0,16.0,30.39,WNW,295,0.0,3.0,71,0.00,,,0.00,weatherlink.com 1.10,2013-01-18 02:44:00,
2013-01-17 21:59:00,24.1,13.0,30.39,NNW,333,3.0,7.0,63,0.00,,,0.00,weatherlink.com 1.10,2013-01-18 02:59:00,
2013-01-17 22:14:00,24.2,13.0,30.39,North,354,1.0,6.0,63,0.00,,,0.00,weatherlink.com 1.10,2013-01-18 03:14:00,
2013-01-17 22:29:00,24.2,13.0,30.39,North,360,1.0,6.0,63,0.00,,,0.00,weatherlink.com 1.10,2013-01-18 03:29:00,
2013-01-17 22:44:00,24.3,13.0,30.39,NW,314,1.0,6.0,63,0.00,,,0.00,weatherlink.com 1.10,2013-01-18 03:44:00,
2013-01-17 22:59:00,24.3,14.0,30.39,NNW,335,2.0,4.0,64,0.00,,,0.00,weatherlink.com 1.10,2013-01-18 03:59:00,
2013-01-17 23:14:00,24.3,14.0,30.39,North,7,4.0,5.0,64,0.00,,,0.00,weatherlink.com 1.10,2013-01-18 04:14:00,
2013-01-17 23:29:00,24.3,14.0,30.39,North,8,0.0,5.0,64,0.00,,,0.00,weatherlink.com 1.10,2013-01-18 04:29:00,
2013-01-17 23:44:00,24.4,14.0,30.39,NW,322,1.0,5.0,65,0.00,,,0.00,weatherlink.com 1.10,2013-01-18 04:44:00,
2013-01-17 23:59:00,24.4,14.0,30.39,NNE,26,1.0,3.0,65,0.00,,,0.00,weatherlink.com 1.10,2013-01-18 04:59:00,